This is the latest recevied weather packets stored in our database for station/object IW2NIA-3. If no packets are shown the sender has not sent any weather packets the latest 10 day(s).
| Time | Temp. | Humidity | Pressure | Rain* | Wind** | Luminosity | Snow |
|---|---|---|---|---|---|---|---|
| 1788579213 | 19.44° C | 83% | 1015.7 hPa | 0 mm | - | - | - |
| 1788578311 | 19.44° C | 83% | 1015.9 hPa | 0 mm | - | - | - |
| 1788577409 | 19.44° C | 83% | 1016 hPa | 0 mm | - | - | - |
| 1788576508 | 19.44° C | 83% | 1016 hPa | 0 mm | - | - | - |
| 1788575623 | 19.44° C | 82% | 1015.9 hPa | 0 mm | - | - | - |
| 1788574723 | 20° C | 82% | 1015.9 hPa | 0 mm | - | - | - |
| 1788573820 | 19.44° C | 81% | 1016 hPa | 0 mm | - | - | - |
| 1788572918 | 20° C | 80% | 1016.1 hPa | 0 mm | - | - | - |
| 1788572027 | 20° C | 79% | 1016.1 hPa | 0 mm | - | - | - |
| 1788571122 | 20° C | 78% | 1016.2 hPa | 0 mm | - | - | - |
| 1788570221 | 20° C | 77% | 1016.3 hPa | 0 mm | - | - | - |
| 1788569319 | 20.56° C | 75% | 1016.4 hPa | 0 mm | - | - | - |
| 1788568413 | 20.56° C | 73% | 1016.5 hPa | 0 mm | - | - | - |
| 1788567506 | 20° C | 70% | 1016.6 hPa | 0 mm | - | - | - |
| 1788566626 | 20° C | 68% | 1016.7 hPa | 0 mm | - | - | - |
| 1788565722 | 20.56° C | 68% | 1016.9 hPa | 0 mm | - | - | - |
| 1788564815 | 20.56° C | 68% | 1016.8 hPa | 0 mm | - | - | - |
| 1788563920 | 21.11° C | 69% | 1016.8 hPa | 0 mm | - | - | - |
| 1788563013 | 21.11° C | 69% | 1016.9 hPa | 0 mm | - | - | - |
| 1788562127 | 21.11° C | 67% | 1017.1 hPa | 0 mm | - | - | - |
| 1788561224 | 21.67° C | 67% | 1017.2 hPa | 0 mm | - | - | - |
| 1788560308 | 21.67° C | 67% | 1017 hPa | 0 mm | - | - | - |
| 1788559422 | 21.67° C | 69% | 1017 hPa | 0 mm | - | - | - |
| 1788558510 | 22.22° C | 68% | 1017.1 hPa | 0 mm | - | - | - |
| 1788557625 | 22.78° C | 68% | 1017.2 hPa | 0 mm | - | - | - |
* Rain latest hour (hover to see other rain measurements)
** Current wind speed in m/s (hover to see current wind gust speed)